SCP
1 1 1 1 1 1 1 1 0 0 0 0 0 0 0 0 0 0 0 0 0 0 0 0 0 0 0 0 0 0 0 0 0 0 0 0 0 0 0 0 0 0 0
1 1 1 1 1 1 1 1 0 0 0 0 0 0 0 0 0 0 0 0 0 0 0 0 0 0 0 0 0 0 0 0 0 0 0 0 0 0 0 0 0 0 0
1 1 1 1 1 1 1 1 1 0 0 0 0 0 0 0 0 0 0 0 0 0 0 0 0 0 0 0 0 0 0 0 0 0 0 0 0 0 0 0 0 0 0
1 1 1 1 0 0 1 1 1 0 0 0 0 0 0 0 0 0 0 0 0 0 0 0 0 0 0 0 0 0 0 0 0 0 0 0 0 0 0 0 0 0 0
1 1 1 1 0 0 0 1 1 1 0 0 0 0 0 0 0 0 0 0 0 0 0 0 0 0 0 0 0 0 0 0 0 0 0 0 0 0 0 0 0 0 0
1 1 1 1 1 0 0 1 1 1 0 0 0 0 0 0 0 0 0 0 0 0 0 0 0 0 0 0 0 0 0 0 0 0 0 0 0 0 0 0 0 0 0
1 1 1 1 1 0 1 1 1 1 1 0 0 0 0 0 0 0 0 0 0 0 0 0 0 0 0 0 0 0 0 0 0 0 0 0 0 0 0 0 0 0 0
1 1 1 1 1 1 1 1 1 1 1 1 0 0 0 0 0 0 0 0 0 0 0 0 0 0 0 0 0 0 0 0 0 0 0 0 0 0 0 0 0 0 0
1 1 1 0 0 1 1 1 1 1 1 1 1 1 0 0 0 0 0 0 0 0 0 0 0 0 0 0 -0 -0 0 0 0 0 0 0 0 0 0 0 0 0 0
1 1 0 0 0 0 1 1 1 1 1 1 1 1 1 0 0 0 0 0 0 0 0 0 0 0 0 -0 -0 -0 -0 0 0 0 0 0 0 0 0 0 0 0 0
1 1 1 1 0 0 1 1 1 1 1 1 1 0 0 0 0 0 0 0 0 0 0 0 -0 -0 -0 -0 -0 -0 -0 -0 -0 -0 -0 -0 0 0 0 0 -0 -0 -0
1 1 1 1 1 1 1 1 1 1 1 1 0 0 1 1 0 1 1 1 0 0 0 0 -0 -0 -0 -0 -0 -0 -0 -0 -0 -0 -0 -0 -0 -0 -0 -0 -0 -0 -0
1 1 1 1 1 1 1 1 1 0 0 0 0 1 1 1 1 1 1 1 0 0 0 -0 -0 -0 -0 -0 -0 -0 -0 -0 -0 -0 -0 -0 -0 -0 -0 -0 -0 -0 -0
1 1 1 1 1 1 1 1 1 1 1 1 1 1 1 1 1 1 1 0 0 -0 -0 -0 -0 -0 0 0 0 0 0 -0 -0 -0 -0 -0 -0 -0 -0 -0 -0 -0 -0
0 1 1 1 1 1 1 1 1 1 1 1 1 1 1 1 1 1 1 0 0 -0 -0 -0 -0 0 0 0 0 0 0 0 0 -0 -0 -0 -0 -0 -0 -0 -0 -0 -0
0 1 1 1 1 1 1 1 1 1 1 1 1 1 1 1 1 1 1 0 0 0 0 0 0 0 0 0 0 0 0 0 0 0 -0 -0 -0 -0 -0 -0 -0 -0 -0
1 1 1 1 1 1 1 1 1 1 1 1 1 1 1 1 1 1 0 0 0 0 0 0 0 0 0 0 0 0 0 0 0 0 -0 -0 -0 -0 -0 -0 -0 -0 -0
1 1 1 1 1 1 1 1 1 1 1 1 1 1 1 1 1 1 0 0 0 0 0 0 0 0 0 0 0 0 0 0 0 0 0 -0 -0 -0 -0 0 0 0 0
1 1 1 1 1 1 1 1 1 1 1 1 1 1 1 1 1 1 0 0 0 0 0 0 0 0 0 0 0 0 0 0 0 0 0 0 0 0 0 0 0 0 0
1 1 1 1 1 1 1 1 1 1 1 1 1 1 1 1 1 1 0 0 0 0 0 0 0 0 0 0 0 0 0 0 0 0 0 0 0 0 0 0 0 0 0
1 1 1 1 1 1 1 1 1 1 1 1 1 1 1 1 1 0 0 0 0 0 0 0 0 0 0 0 0 0 0 0 0 0 0 0 0 0 0 0 0 0 0
1 1 1 1 1 1 1 1 1 1 1 1 1 1 1 1 0 0 0 0 0 0 0 0 0 0 0 0 0 0 0 0 0 0 0 0 0 0 0 0 0 0 0
1 1 1 1 1 1 1 1 1 1 1 1 1 1 1 0 0 0 0 0 0 0 0 0 0 0 0 0 0 0 0 0 0 0 0 0 0 0 0 0 0 0 0
1 1 1 1 1 1 1 1 1 1 1 1 1 1 1 0 0 0 0 0 0 0 0 0 0 0 0 0 0 0 0 0 0 0 0 0 0 0 0 0 0 0 0
1 1 1 1 1 1 1 1 1 1 1 1 1 1 0 0 0 0 0 0 0 0 0 0 0 0 0 0 0 0 0 0 0 0 0 0 0 0 0 0 0 0 0
1 1 1 1 1 1 1 1 1 1 1 1 1 1 0 0 0 0 0 0 0 0 0 0 0 0 0 0 0 0 0 0 0 0 0 0 0 0 0 0 0 0 0
Wind_Speed
9 9 8 8 8 7 7 6 5 4 3 2 2 2 2 2 2 2 3 2 2 2 1 2 1 1 1 1 2 2 2 1 0 0 1 1 2 1 1 1 1 1 2
11 11 9 8 8 7 7 6 5 4 3 2 2 1 2 2 3 2 2 3 2 2 2 2 1 1 1 1 1 1 1 2 1 1 1 1 1 1 0 1 1 1 1
12 11 10 8 8 7 7 5 4 4 3 3 2 2 2 2 2 2 2 2 2 2 2 2 2 1 1 1 1 1 1 2 2 1 1 0 1 1 1 1 0 0 1
11 11 10 9 8 8 7 6 5 4 3 3 2 2 3 2 2 2 2 2 1 2 2 2 2 2 2 2 2 2 2 2 2 2 1 1 0 0 1 1 1 1 1
11 11 10 10 9 9 8 7 6 5 4 3 2 2 2 1 2 2 2 2 1 1 2 2 2 2 2 2 3 2 2 2 2 2 2 2 1 0 1 1 1 1 1
12 11 11 10 8 9 8 8 7 5 4 3 3 2 2 1 2 2 1 1 1 1 2 2 2 2 2 2 3 2 2 2 3 2 2 2 2 1 1 1 1 0 1
11 11 11 10 9 8 8 8 7 6 5 4 3 2 1 1 2 1 1 1 1 2 2 2 2 2 2 2 2 2 2 2 2 2 2 2 2 1 0 0 1 1 1
10 10 10 10 9 9 8 8 8 6 5 4 3 2 2 1 1 1 1 2 2 2 2 2 2 2 2 3 2 2 2 2 2 3 2 2 2 1 1 1 1 1 1
10 10 10 9 9 9 8 9 8 6 5 5 4 3 2 2 1 1 2 2 2 1 2 2 2 2 2 3 2 2 2 3 3 3 3 2 2 2 1 1 1 1 2
9 9 8 7 7 7 8 9 8 7 6 5 3 4 3 2 2 2 2 2 2 2 2 2 2 2 2 2 2 2 2 3 3 2 3 3 2 3 2 2 2 1 1
9 9 8 8 7 6 7 8 8 7 6 5 3 3 3 3 2 2 2 2 2 1 2 2 1 2 2 3 3 3 3 3 3 3 3 3 3 3 3 2 2 1 0
9 8 8 8 7 6 5 6 6 8 7 6 4 4 3 3 3 3 2 2 1 1 1 1 1 2 2 2 3 4 4 3 3 3 3 3 3 3 3 3 2 2 1
8 8 8 7 6 6 5 4 5 6 7 7 6 5 3 3 3 3 2 2 1 1 1 1 1 1 2 2 3 3 3 3 3 3 3 3 3 3 3 3 3 2 2
8 8 7 6 5 5 5 5 4 4 5 5 5 5 3 3 3 3 2 1 1 1 1 1 1 2 3 3 3 4 3 3 3 3 3 3 3 3 3 2 3 2 2
8 7 7 6 6 5 4 5 4 4 4 5 4 4 4 3 3 3 2 2 0 1 1 1 1 2 2 4 5 5 4 4 3 3 3 4 6 7 5 3 3 3 2
7 7 6 7 6 5 4 3 4 4 5 5 4 4 3 3 2 2 2 2 1 1 1 1 2 3 4 6 7 6 5 3 3 3 3 2 4 5 6 5 5 4 2
7 6 6 6 6 6 5 5 4 4 5 5 4 4 4 3 2 2 2 1 1 1 1 1 1 2 3 6 7 8 5 3 2 2 2 3 4 4 4 4 4 4 3
7 7 6 6 6 6 6 5 4 5 5 5 4 4 3 3 3 2 2 1 1 1 1 0 1 2 3 4 5 7 4 3 2 2 2 3 3 4 4 3 4 4 4
4 6 6 6 5 6 5 5 4 5 5 5 4 4 4 4 3 3 2 2 1 1 1 1 1 1 3 3 4 5 3 2 2 2 3 3 3 5 6 3 3 3 3
5 6 6 6 5 5 5 4 4 4 4 4 4 4 3 3 3 2 2 2 1 1 1 1 1 2 3 3 4 4 2 2 2 1 2 5 5 5 5 3 3 3 4
6 6 6 5 4 4 5 4 3 3 4 4 4 4 3 3 3 3 2 2 2 1 1 1 1 2 3 4 2 2 2 3 3 2 1 2 4 4 5 3 2 3 4
5 6 5 5 4 4 4 4 3 3 3 4 4 3 3 3 3 3 2 2 2 2 2 2 2 2 3 3 2 0 1 2 2 3 2 1 2 3 4 3 3 5 4
4 4 5 5 4 3 4 4 3 3 3 3 3 3 3 2 3 3 3 3 3 2 1 2 1 1 2 2 1 1 3 3 2 2 3 4 4 4 3 4 4 3 2
3 4 5 4 3 3 3 3 3 3 3 4 3 3 3 3 2 1 1 1 0 1 1 1 0 1 2 2 1 1 2 2 2 3 3 5 5 4 3 2 2 2 1
3 3 3 4 4 4 4 3 3 3 4 4 4 4 3 3 2 2 1 1 1 1 0 1 1 1 1 1 1 2 2 2 2 3 3 2 1 1 1 1 1 1 1
3 3 3 4 4 4 4 4 4 4 3 3 3 3 3 2 3 3 3 2 2 3 3 2 1 1 1 1 1 2 3 4 4 2 2 2 1 2 2 2 1 1 1
Wind_Direction
136 129 126 122 116 111 111 110 108 107 108 106 106 106 103 105 97 92 81 69 57 53 43 40 39 357 71 36 350 359 340 316 284 339 336 279 207 181 175 181 159 193 178
138 133 134 129 125 122 120 116 114 112 111 113 115 125 114 105 98 78 75 59 49 38 48 45 15 3 27 18 322 328 326 313 317 321 325 331 329 358 298 111 148 222 142
140 140 139 136 134 130 126 123 122 120 118 111 117 103 92 79 81 87 79 50 44 46 30 46 23 360 9 354 298 336 317 310 315 313 304 323 341 2 10 11 148 31 80
144 145 145 145 144 141 135 127 127 122 116 113 115 121 116 108 90 92 91 74 43 46 43 44 26 5 16 10 345 18 339 324 323 322 316 294 283 230 329 347 357 16 28
147 147 147 146 146 141 139 135 131 129 126 130 117 110 98 90 88 100 109 104 70 46 41 35 25 20 21 10 357 359 350 341 334 326 330 336 321 264 202 281 306 332 354
146 144 141 142 146 145 144 140 137 139 140 138 128 117 105 76 77 75 94 115 90 51 37 48 28 22 10 5 353 345 353 353 345 326 325 319 316 288 244 238 251 268 295
143 143 146 148 149 148 147 143 144 144 142 139 134 131 134 115 88 75 73 68 69 63 32 39 32 18 356 358 356 352 347 358 340 320 319 314 307 305 289 247 269 270 264
146 148 148 150 153 151 149 144 143 144 144 146 142 133 130 129 94 58 45 63 59 62 49 44 33 15 3 358 354 336 349 356 329 330 341 321 319 312 304 261 264 278 273
151 149 149 150 152 152 153 151 146 145 151 155 150 141 136 121 95 67 68 62 62 72 58 47 43 25 8 356 346 343 354 347 347 344 353 335 325 322 316 289 257 255 275
151 142 140 137 135 145 149 144 145 149 154 154 160 147 139 125 104 78 71 63 54 41 42 36 27 17 3 353 349 340 357 358 350 335 353 347 336 333 333 333 318 311 238
141 139 136 133 130 135 146 146 148 150 150 149 145 133 145 143 136 119 93 84 69 57 50 46 24 13 4 358 355 342 355 349 340 338 354 348 349 347 341 345 336 350 16
131 129 130 134 134 135 140 145 151 156 157 155 151 156 153 151 149 127 116 115 116 97 78 60 31 18 26 9 358 343 346 347 345 347 349 349 355 359 350 344 343 347 340
126 128 130 134 141 143 139 151 159 158 158 159 161 159 159 151 139 132 132 125 119 109 88 74 33 25 34 16 0 345 336 341 346 353 356 0 8 0 353 343 352 350 355
127 127 129 133 137 143 147 151 152 150 152 154 157 153 161 152 146 140 135 129 132 118 56 50 24 27 47 25 6 350 338 350 355 1 8 12 16 7 345 353 2 349 344
132 130 136 139 141 140 139 147 151 148 144 146 150 154 152 147 145 143 135 124 108 85 56 39 33 33 47 26 16 346 348 349 346 2 11 25 39 35 19 9 357 348 339
132 132 140 140 144 142 138 147 152 149 145 152 154 145 146 148 145 139 128 132 117 78 63 38 41 31 35 30 22 3 340 339 348 0 4 17 39 27 20 20 8 354 338
132 144 148 148 144 145 146 154 161 146 147 150 146 149 156 150 147 157 141 146 126 101 84 55 59 73 52 29 21 3 333 336 5 11 351 347 28 30 15 3 358 347 332
147 151 151 148 146 149 148 157 160 151 148 150 150 150 155 153 152 151 152 148 138 133 140 157 67 74 67 37 17 354 332 347 15 18 17 29 26 20 6 350 359 348 349
135 137 138 133 134 142 145 155 167 151 150 154 155 157 159 157 162 166 163 156 167 167 178 166 140 98 89 51 26 0 325 350 2 23 41 42 43 22 16 13 357 347 344
108 116 121 122 122 130 139 146 145 146 154 155 153 149 155 164 164 158 157 158 181 198 204 168 158 133 115 87 45 4 335 343 356 41 57 59 56 37 20 4 342 334 333
109 111 112 116 120 132 137 141 140 143 143 142 140 144 157 173 159 147 153 166 197 199 208 191 176 149 135 123 82 36 357 347 346 356 15 48 41 17 353 339 313 306 313
110 115 108 109 119 130 136 138 135 130 134 136 139 149 166 192 151 150 169 187 203 210 207 208 214 170 147 134 143 113 318 328 339 332 350 7 340 327 320 319 305 310 319
114 120 116 110 111 117 126 138 130 127 132 134 138 147 156 157 148 173 186 200 203 219 221 219 225 189 129 118 98 260 292 298 305 325 333 310 285 285 278 269 277 300 311
115 120 122 122 120 120 120 124 128 137 143 142 146 157 164 170 158 182 190 188 167 275 285 313 2 55 72 72 30 297 297 306 305 320 305 281 272 274 274 277 278 273 288
116 122 129 130 132 127 128 138 136 143 154 161 168 178 173 161 146 136 89 115 105 140 201 8 10 29 29 358 291 275 296 312 320 311 286 273 280 290 297 288 285 282 288
136 140 141 140 144 147 149 152 152 154 163 178 186 193 176 171 170 166 154 102 138 154 160 167 181 102 142 176 264 301 299 295 295 286 274 291 301 304 310 312 316 327 338